Regional Weather Roundup
Issued by NWS

Home | Current Version | Previous Version | Text Only | Print | Product List | Glossary Off
Versions: 1 2 3 4 5 6 7 8 9 10 11 12 13 14 15 16 17 18 19 20 21 22 23 24 25 26 27 28 29 30 31 32 33 34 35 36 37 38 39 40 41 42 43 44 45 46 47 48 49 50

000
ASUS45 KBOU 172110
RWRCO

WEATHER ROUNDUP FOR COLORADO
NATIONAL WEATHER SERVICE DENVER/BOULDER CO
200 PM MST SUN DEC 17 2017

NOTE: "FAIR" INDICATES FEW OR NO CLOUDS BELOW 12000 FEET WITH NO
SIGNIFICANT WEATHER AND/OR OBSTRUCTIONS TO VISIBILITY.

COZ001>005-013-030-031-172200-
...NORTHWEST COLORADO...

CITY           SKY/WX    TMP DP  RH WIND       PRES   REMARKS
CRAIG          FAIR      32  20  61 VRB3      30.04F
HAYDEN         CLOUDY    30  23  75 W6        30.04F WCI  24
MEEKER         FAIR      38  19  46 W9        30.01F
RABBIT EARS PA CLOUDY    18  14  86 W13G21    29.94F FOG     WCI   4
STEAMBOAT SPGS CLOUDY    29  20  69 CALM      30.02S
WALDEN         PTSUNNY   30  16  55 SW13G21   29.96S WCI  20
$$

COZ006>008-011-172200-
...WEST CENTRAL VALLEYS...

CITY           SKY/WX    TMP DP  RH WIND       PRES   REMARKS
GRAND JUNCTION FAIR      42  11  28 NW3       30.02F
MONTROSE       FAIR      40   7  25 NW8       30.02F
EAGLE          FAIR      38  10  31 CALM      30.00F
RIFLE          FAIR      41  11  29 CALM      30.00F
DELTA          FAIR      44   8  22 SW6       30.02S
NUCLA          FAIR      41   1  19 NW3       30.04F
$$

COZ017>023-064>068-172200-
...SOUTHWEST COLORADO...

CITY           SKY/WX    TMP DP  RH WIND       PRES   REMARKS
DURANGO        FAIR      46   4  17 W9        29.97F
CORTEZ         FAIR      47   5  18 SW8       29.98F
PAGOSA SPRINGS FAIR      43  -4  13 SW6       29.99S
TELLURIDE      FAIR      38  -1  20 W12G17    30.00F
WOLF CREEK PAS FAIR      27   1  33 S14G23    30.06F WCI  15
$$

COZ009-010-012-014-032>034-037-058>063-172200-
...CENTRAL COLORADO...

CITY           SKY/WX    TMP DP  RH WIND       PRES   REMARKS
ASPEN          FAIR      38   6  26 NW9       29.94F
BUENA VISTA    FAIR      42   3  20 SW10G17   29.90F
COPPER MTN     NOT AVBL
BERTHOUD PASS  FAIR      16   3  57 NW32G44   29.90F WCI  -5
COTTONWOOD PAS FAIR      41  -6  13 W10G24    29.93F
GUNNISON       FAIR      39   7  26 CALM      29.96F
KREMMLING      FAIR      36  16  44 CALM      29.98F
LEADVILLE      FAIR      32  -1  24 N10G20    29.92F WCI  24
MONARCH PASS   FAIR      23  -2  33 W44G55    30.04F WCI   3
SALIDA         FAIR      47  -3  12 SW17G24   29.98S
SUNLIGHT       FAIR      27   3  36 SW8G18    30.02F WCI  18
WILKERSON PASS FAIR      27   0  31 SW17G25   29.94F WCI  14
$$

COZ069>075-172200-
...SAN LUIS VALLEY/SANGRE DE CRISTO MOUNTAINS...

CITY           SKY/WX    TMP DP  RH WIND       PRES   REMARKS
ALAMOSA        FAIR      41  11  29 S5        29.95F
DEL NORTE      FAIR      39   8  28 SE3       29.95F
LA VETA PASS   FAIR      36   9  32 SW15G24     N/A
SAGUACHE       FAIR      39  10  30 S8        29.95F
$$

COZ035-036-038>040-172200-
...NORTHERN COLORADO FRONT RANGE...

CITY           SKY/WX    TMP DP  RH WIND       PRES   REMARKS
DENVER INTL AP PTSUNNY   38  23  55 CALM      29.88F
DMNS CITY PARK NOT AVBL
AURORA         PTSUNNY   38  23  53 CALM      29.87F
FRONT RANGE AP NOT AVBL
ERIE MUNI ARPT FAIR      38  25  59 CALM      29.94F
BOULDER MUN AP FAIR      39  27  60 NE5       29.87F
CENTENNIAL     PTSUNNY   37  23  56 SE8       29.86F
BROOMFIELD     PTSUNNY   37  27  65 SE5       29.88F
FORT COLLINS   PTSUNNY   35  26  69 W5        29.90F WCI  31
LONGMONT       FAIR      42  28  57 NE6       29.90F
$$

COZ041-046-047-076>085-087-088-172200-
...PIKES PEAK/PALMER DIVIDE AND SOUTHERN FOOTHILLS...

CITY           SKY/WX    TMP DP  RH WIND       PRES   REMARKS
COLO. SPRINGS  PTSUNNY   31  23  72 SE5       29.92S WCI  26
A. F. ACADEMY  FAIR      32  21  62 S6        29.88F WCI  27
SCHRIEVER AFB  FAIR      31  23  71 CALM      29.92F
CHEYENNE MTN   PTSUNNY   29  22  76 SE6       29.84F WCI  23
ELLICOTT         N/A    N/A N/A N/A CALM      29.91F
FALCON         FAIR      31  21  66 CALM      29.90F
FORT CARSON    FAIR      33  22  64 CALM      29.91F
LIMON          FAIR      36  24  62 S6        29.91F
MONUMENT HILL  FAIR      34  21  60 SE9       29.88F WCI  26
CANON CITY     FAIR      37  27  65 SE3       29.91F
WALSENBURG     FAIR      41  25  52 E5        29.91F
TRINIDAD       FAIR      38  24  57 VRB6      29.92F
$$

COZ042>045-048>051-090-091-172200-
...NORTHEAST COLORADO...

CITY           SKY/WX    TMP DP  RH WIND       PRES   REMARKS
GREELEY ARPT   FAIR      38  26  62 SE3       29.91F
AKRON          FAIR      37  25  61 W7        29.91F
BURLINGTON     FAIR      38  26  62 NW7       29.95F
WRAY           PTSUNNY   41  28  60 W3        29.95F
YUMA           MOCLDY    36  28  75 W5        29.93F
STERLING       FAIR      43  28  56 W7        29.90F
HOLYOKE        FAIR      46  28  49 W6        29.92F
FORT MORGAN    FAIR      40  24  54 W5        29.92S
$$

COZ086-089-092>099-172200-
...SOUTHEAST COLORADO...

CITY           SKY/WX    TMP DP  RH WIND       PRES   REMARKS
PUEBLO         FAIR      38  26  62 CALM      29.93F
LA JUNTA       PTSUNNY   40  26  57 CALM      29.96F
LAMAR          FAIR      45  26  47 NE10      29.95F
SPRINGFIELD      N/A     40  27  59 N13       29.95F
$$



USA.gov is the U.S. government's official web portal to all federal, state and local government web resources and services.